El Centro, CA

6:48 AM PDT on May 28, 2017 (GMT -0700)
El Centro Naval Air Facility

Weather History for KNJK - September, 2013

Change the Weather History Date:

Thursday, September 5, 2013

  Actual Average Record
Temperature  
Mean Temperature 92 °F -  
Max Temperature 109 °F 102 °F 109 °F (2008)
Min Temperature 77 °F 77 °F 72 °F (2000)
Cooling Degree Days 27    
Growing Degree Days 42 (Base 50)    
Moisture  
Dew Point 63 °F    
Average Humidity 43    
Maximum Humidity 76    
Minimum Humidity 18    
Precipitation  
Precipitation 0.00 in - - ()
Sea Level Pressure  
Sea Level Pressure 29.81 in    
Wind  
Wind Speed 5 mph (WSW)    
Max Wind Speed 18 mph    
Max Gust Speed -    
Visibility 10 miles    
Events      
Averages and records for this station are not official NWS values.
T = Trace of Precipitation, MM = Missing Value Source: NWS Daily Summary

Daily Weather History Graph

Daily Weather History Graph

Search for Another Location

Airport or City:

Trip Planner

Search our weather history database for the weather conditions in past years. The results will help you decide how hot, cold, wet, or windy it might be!

Date:

Astronomy

Sep. 05, 2013 Rise Set
Actual Time 6:20 AM PDT 7:01 PM PDT
Civil Twilight 5:55 AM PDT 7:26 PM PDT
Nautical Twilight 5:25 AM PDT 7:56 PM PDT
Astronomical Twilight 4:55 AM PDT 8:26 PM PDT
Moon 6:32 AM PDT (9/5) 7:01 PM PDT (9/5)
Length of Visible Light 13h 31m
Length of Day
12h 41m
New Moon, 0% of the Moon is Illuminated
Sep 5
New Moon
Sep 12
First Quarter
Sep 19
Full
Sep 26
Last Quarter
Oct 4
New

Hourly Weather History & Observations

Time (PDT) Temp. Heat Index Dew Point Humidity Pressure Visibility Wind Dir Wind Speed Gust Speed Precip Events Conditions
12:56 AM 80.1 °F 83.6 °F 71.1 °F 74% 29.83 in 10.0 mi WSW 5.8 mph - N/A   Clear
1:56 AM 79.0 °F - 70.0 °F 74% 29.82 in 10.0 mi Calm Calm - N/A   Clear
2:56 AM 79.0 °F - 70.0 °F 74% 29.82 in 10.0 mi SSW 4.6 mph - N/A   Clear
3:56 AM 80.1 °F 82.9 °F 69.1 °F 69% 29.81 in 10.0 mi West 8.1 mph - N/A   Clear
4:56 AM 77.0 °F - 69.1 °F 76% 29.82 in 10.0 mi Calm Calm - N/A   Clear
5:56 AM 78.1 °F - 69.1 °F 74% 29.83 in 10.0 mi WSW 5.8 mph - N/A   Clear
6:56 AM 79.0 °F - 66.0 °F 64% 29.84 in 10.0 mi SW 5.8 mph - N/A   Partly Cloudy
7:56 AM 81.0 °F 83.8 °F 68.0 °F 65% 29.86 in 10.0 mi West 4.6 mph - N/A   Partly Cloudy
8:56 AM 89.1 °F 92.9 °F 68.0 °F 50% 29.86 in 10.0 mi West 5.8 mph - N/A   Partly Cloudy
9:56 AM 96.1 °F 96.9 °F 62.1 °F 32% 29.87 in 10.0 mi West 4.6 mph - N/A   Partly Cloudy
10:56 AM 100.0 °F 101.8 °F 62.1 °F 29% 29.86 in 10.0 mi Variable 3.5 mph - N/A   Partly Cloudy
11:56 AM 102.0 °F 104.6 °F 63.0 °F 28% 29.85 in 10.0 mi ENE 9.2 mph - N/A   Partly Cloudy
12:56 PM 104.0 °F 104.6 °F 59.0 °F 23% 29.83 in 10.0 mi ENE 6.9 mph - N/A   Partly Cloudy
1:56 PM 107.1 °F 107.4 °F 57.9 °F 20% 29.80 in 10.0 mi Variable 3.5 mph - N/A   Scattered Clouds
2:56 PM 107.1 °F 106.7 °F 57.0 °F 19% 29.77 in 10.0 mi SSE 4.6 mph - N/A   Scattered Clouds
3:56 PM 107.1 °F 106.0 °F 55.0 °F 18% 29.76 in 10.0 mi Calm Calm - N/A   Scattered Clouds
4:56 PM 107.1 °F 106.7 °F 55.9 °F 19% 29.76 in 10.0 mi Calm Calm - N/A   Scattered Clouds
5:56 PM 102.9 °F 103.0 °F 59.0 °F 23% 29.76 in 10.0 mi West 18.4 mph - N/A   Scattered Clouds
6:56 PM 99.0 °F 98.6 °F 59.0 °F 26% 29.76 in 10.0 mi West 12.7 mph - N/A   Scattered Clouds
7:56 PM 96.1 °F 95.6 °F 59.0 °F 29% 29.78 in 10.0 mi West 9.2 mph - N/A   Mostly Cloudy
8:56 PM 93.0 °F 92.7 °F 60.1 °F 33% 29.79 in 10.0 mi WSW 6.9 mph - N/A   Mostly Cloudy
9:56 PM 91.0 °F 90.2 °F 59.0 °F 34% 29.79 in 10.0 mi West 3.5 mph - N/A   Partly Cloudy
10:56 PM 90.0 °F 90.0 °F 61.0 °F 38% 29.80 in 10.0 mi WSW 6.9 mph - N/A   Partly Cloudy
11:56 PM 88.0 °F 88.7 °F 63.0 °F 43% 29.80 in 10.0 mi WSW 8.1 mph - N/A   Clear